Weather History for KCCU - October, 2012

Change the Weather History Date:

Sunday, October 7, 2012

  Actual Average (KLXV) Record (KLXV)
Temperature  
Mean Temperature 28 °F -  
Max Temperature 37 °F 53 °F 66 °F (1980)
Min Temperature 19 °F 26 °F 15 °F (2012)
Degree Days  
Heating Degree Days 37 26  
Month to date heating degree days 173  
Since 1 July heating degree days 1471  
Cooling Degree Days 0 0  
Month to date cooling degree days 0  
Year to date cooling degree days 0  
Moisture  
Dew Point -9 °F    
Average Humidity 21    
Maximum Humidity 39    
Minimum Humidity 6    
Precipitation  
Precipitation 0.00 in 0.03 in 0.60 in (1985)
Month to date precipitation 0.21  
Year to date precipitation 10.24  
Sea Level Pressure  
Sea Level Pressure 30.22 in    
Wind  
Wind Speed 15 mph (West)    
Max Wind Speed 26 mph    
Max Gust Speed 34 mph    
Visibility 9 miles    
Events      
T = Trace of Precipitation, MM = Missing Value Source: NWS Daily Summary

Daily Weather History Graph

Daily Weather History Graph

Search for Another Location

Airport or City:

Trip Planner

Search our weather history database for the weather conditions in past years. The results will help you decide how hot, cold, wet, or windy it might be!

Date:

Astronomy

Oct. 07, 2012 Rise Set
Actual Time 7:07 AM MDT 6:36 PM MDT
Civil Twilight 6:40 AM MDT 7:03 PM MDT
Nautical Twilight 6:09 AM MDT 7:34 PM MDT
Astronomical Twilight 5:37 AM MDT 8:05 PM MDT
Moon 11:52 PM MDT (10/7) 1:45 PM MDT (10/7)
Length of Visible Light 12h 23m
Length of Day
11h 29m
Waning Gibbous, 55% of the Moon is Illuminated
Oct 7
Waning Gibbous
Oct 8
Last Quarter
Oct 15
New
Oct 21
First Quarter
Oct 29
Full

Hourly Weather History & Observations

Time (MDT) Temp. Windchill Dew Point Humidity Pressure Visibility Wind Dir Wind Speed Gust Speed Precip Events Conditions
12:15 AM 26.6 °F 17.5 °F -5.8 °F 24% 30.19 in 10.0 mi West 9.2 mph - N/A   Overcast
12:35 AM 26.6 °F 19.1 °F -7.6 °F 22% 30.19 in 10.0 mi WSW 6.9 mph - N/A   Overcast
12:55 AM 24.8 °F 14.6 °F -7.6 °F 24% 30.18 in 10.0 mi West 10.4 mph - N/A   Overcast
1:15 AM 24.8 °F 14.0 °F -4.0 °F 28% 30.18 in 10.0 mi West 11.5 mph - N/A   Overcast
1:35 AM 24.8 °F 11.5 °F -4.0 °F 28% 30.18 in 10.0 mi West 17.3 mph - N/A   Overcast
1:55 AM 24.8 °F 11.9 °F -2.2 °F 31% 30.18 in 10.0 mi West 16.1 mph - N/A   Overcast
2:15 AM 24.8 °F 13.4 °F -2.2 °F 31% 30.18 in 10.0 mi West 12.7 mph - N/A   Overcast
2:35 AM 23.0 °F 13.9 °F 1.4 °F 39% 30.18 in 10.0 mi West 8.1 mph - N/A   Overcast
2:55 AM 23.0 °F 10.6 °F -0.4 °F 36% 30.17 in 10.0 mi West 13.8 mph - N/A   Overcast
3:15 AM 23.0 °F 9.6 °F -4.0 °F 31% 30.16 in 10.0 mi West 16.1 mph - N/A   Overcast
3:35 AM 23.0 °F 9.6 °F -4.0 °F 31% 30.16 in 10.0 mi West 16.1 mph - N/A   Overcast
3:55 AM 23.0 °F 9.2 °F -4.0 °F 31% 30.16 in 10.0 mi West 17.3 mph - N/A   Overcast
4:15 AM 23.0 °F 11.1 °F -2.2 °F 33% 30.16 in 10.0 mi West 12.7 mph - N/A   Overcast
4:35 AM 23.0 °F 8.7 °F -5.8 °F 28% 30.15 in 10.0 mi West 18.4 mph - N/A   Scattered Clouds
4:55 AM 23.0 °F 9.2 °F -11.2 °F 22% 30.15 in 10.0 mi West 17.3 mph 26.5 mph N/A   Clear
5:15 AM 21.2 °F 6.4 °F -7.6 °F 28% 30.15 in 10.0 mi West 18.4 mph - N/A   Clear
5:55 AM 21.2 °F 6.8 °F -5.8 °F 30% 30.15 in 10.0 mi West 17.3 mph - N/A   Clear
6:15 AM 21.2 °F 6.8 °F -7.6 °F 28% 30.16 in 10.0 mi West 17.3 mph 24.2 mph N/A   Scattered Clouds
6:35 AM 19.4 °F 4.5 °F -5.8 °F 33% 30.17 in 10.0 mi West 17.3 mph - N/A   Scattered Clouds
6:55 AM 19.4 °F 5.5 °F -4.0 °F 36% 30.17 in 10.0 mi West 15.0 mph - N/A   Overcast
7:15 AM 19.4 °F 5.0 °F -2.2 °F 39% 30.17 in 10.0 mi West 16.1 mph - N/A   Mostly Cloudy
7:55 AM 19.4 °F 5.5 °F -11.2 °F 25% 30.18 in 10.0 mi West 15.0 mph - N/A   Clear
8:15 AM 21.2 °F 7.8 °F -14.8 °F 20% 30.19 in 10.0 mi West 15.0 mph - N/A   Clear
8:35 AM 23.0 °F 11.7 °F -16.6 °F 17% 30.20 in 10.0 mi West 11.5 mph 16.1 mph N/A   Clear
8:55 AM 23.0 °F 10.1 °F -13.0 °F 20% 30.20 in 10.0 mi West 15.0 mph - N/A   Clear
9:15 AM 23.0 °F 11.1 °F -9.4 °F 24% 30.21 in 10.0 mi West 12.7 mph 17.3 mph N/A   Clear
9:35 AM 24.8 °F 11.9 °F -11.2 °F 20% 30.22 in 10.0 mi West 16.1 mph 23.0 mph N/A   Clear
9:55 AM 24.8 °F 12.4 °F -13.0 °F 19% 30.22 in 10.0 mi West 15.0 mph 31.1 mph N/A   Clear
10:15 AM 26.6 °F 13.4 °F -13.0 °F 17% 30.22 in 10.0 mi West 18.4 mph 27.6 mph N/A   Clear
10:35 AM 26.6 °F 14.7 °F -14.8 °F 16% 30.22 in 10.0 mi West 15.0 mph 27.6 mph N/A   Clear
10:55 AM 28.4 °F 14.7 °F -13.0 °F 16% 30.22 in 10.0 mi West 21.9 mph 29.9 mph N/A   Clear
11:15 AM 28.4 °F 18.0 °F -7.6 °F 21% 30.22 in 3.0 mi West 12.7 mph 25.3 mph N/A   Haze
11:35 AM 30.2 °F 19.8 °F -9.4 °F 18% 30.22 in 5.0 mi West 13.8 mph 26.5 mph N/A   Haze
11:55 AM 30.2 °F 16.5 °F -7.6 °F 19% 30.22 in 5.0 mi West 24.2 mph 28.8 mph N/A   Haze
12:15 PM 32.0 °F 19.5 °F -13.0 °F 14% 30.23 in 10.0 mi West 21.9 mph 28.8 mph N/A   Clear
12:35 PM 33.8 °F 21.6 °F -11.2 °F 14% 30.23 in 7.0 mi West 23.0 mph 28.8 mph N/A   Clear
12:55 PM 33.8 °F 26.4 °F -2.2 °F 22% 30.23 in 4.0 mi West 9.2 mph 24.2 mph N/A   Haze
1:15 PM 33.8 °F 22.2 °F -9.4 °F 15% 30.23 in 7.0 mi West 20.7 mph 28.8 mph N/A   Clear
1:35 PM 33.8 °F 23.9 °F -11.2 °F 14% 30.23 in 5.0 mi West 15.0 mph 23.0 mph N/A   Haze
1:55 PM 33.8 °F 21.6 °F -13.0 °F 13% 30.22 in 7.0 mi West 23.0 mph 26.5 mph N/A   Clear
2:15 PM 35.6 °F 25.2 °F -5.8 °F 17% 30.23 in 5.0 mi West 18.4 mph 24.2 mph N/A   Haze
2:35 PM 33.8 °F 23.2 °F -16.6 °F 11% 30.23 in 10.0 mi West 17.3 mph 27.6 mph N/A   Clear
2:55 PM 35.6 °F 24.0 °F -18.4 °F 9% 30.23 in 10.0 mi West 23.0 mph 27.6 mph N/A   Clear
3:15 PM 35.6 °F 24.5 °F -18.4 °F 9% 30.23 in 10.0 mi West 20.7 mph 29.9 mph N/A   Clear
3:35 PM 35.6 °F 23.7 °F -25.6 °F 6% 30.22 in 10.0 mi West 24.2 mph 31.1 mph N/A   Clear
3:55 PM 35.6 °F 25.5 °F -27.4 °F 6% 30.23 in 10.0 mi West 17.3 mph 32.2 mph N/A   Clear
4:15 PM 35.6 °F 24.0 °F -22.0 °F 8% 30.23 in 10.0 mi WNW 23.0 mph 31.1 mph N/A   Clear
4:35 PM 37.4 °F 26.4 °F -18.4 °F 9% 30.23 in 10.0 mi West 23.0 mph 28.8 mph N/A   Clear
4:55 PM 37.4 °F 26.6 °F -16.6 °F 9% 30.23 in 10.0 mi West 21.9 mph 28.8 mph N/A   Clear
5:15 PM 37.4 °F 26.4 °F -7.6 °F 15% 30.23 in 7.0 mi West 23.0 mph 29.9 mph N/A   Clear
5:35 PM 35.6 °F 23.2 °F -14.8 °F 11% 30.23 in 10.0 mi West 26.5 mph 34.5 mph N/A   Clear
5:55 PM 35.6 °F 24.5 °F -13.0 °F 12% 30.25 in 10.0 mi West 20.7 mph 27.6 mph N/A   Clear
6:15 PM 33.8 °F 21.9 °F -9.4 °F 15% 30.25 in 10.0 mi West 21.9 mph 27.6 mph N/A   Clear
6:55 PM 33.8 °F 23.9 °F -7.6 °F 17% 30.26 in 10.0 mi West 15.0 mph 23.0 mph N/A   Clear
7:15 PM 32.0 °F 21.6 °F -7.6 °F 18% 30.26 in 10.0 mi West 15.0 mph 19.6 mph N/A   Clear
7:35 PM 32.0 °F 21.6 °F -5.8 °F 20% 30.26 in 10.0 mi West 15.0 mph 25.3 mph N/A   Clear
7:55 PM 30.2 °F 19.8 °F -7.6 °F 19% 30.27 in 10.0 mi West 13.8 mph 19.6 mph N/A   Clear
8:15 PM 30.2 °F 19.3 °F -5.8 °F 21% 30.28 in 10.0 mi West 15.0 mph 25.3 mph N/A   Clear
8:35 PM 30.2 °F 22.6 °F -7.6 °F 19% 30.28 in 10.0 mi West 8.1 mph - N/A   Clear
8:55 PM 28.4 °F 18.5 °F -5.8 °F 23% 30.29 in 10.0 mi West 11.5 mph 16.1 mph N/A   Clear
9:15 PM 30.2 °F 20.2 °F -7.6 °F 19% 30.29 in 10.0 mi West 12.7 mph 19.6 mph N/A   Clear
9:35 PM 28.4 °F 16.6 °F -9.4 °F 19% 30.29 in 10.0 mi West 16.1 mph 19.6 mph N/A   Clear
9:55 PM 30.2 °F 20.2 °F -5.8 °F 21% 30.29 in 10.0 mi West 12.7 mph 18.4 mph N/A   Clear
10:15 PM 28.4 °F - -7.6 °F 21% 30.28 in 10.0 mi North - - N/A   Clear
10:35 PM 28.4 °F 17.5 °F -7.6 °F 21% 30.29 in 10.0 mi West 13.8 mph - N/A   Clear
10:55 PM 28.4 °F 19.1 °F -7.6 °F 21% 30.29 in 10.0 mi WSW 10.4 mph - N/A   Clear
11:15 PM 28.4 °F 18.5 °F -5.8 °F 23% 30.28 in 10.0 mi West 11.5 mph 17.3 mph N/A   Clear
11:35 PM 28.4 °F 22.2 °F -7.6 °F 21% 30.28 in 10.0 mi WSW 5.8 mph - N/A   Clear
11:55 PM 28.4 °F 24.6 °F -7.6 °F 21% 30.28 in 10.0 mi WSW 3.5 mph - N/A   Clear